Printer-friendly version

IAU Minor Planet Center

Minor Planet Center

MPEC 2001-X71: COMET C/2001 Q4 (NEAT)

The following Minor Planet Electronic Circular may be linked-to from your own Web pages, but must not otherwise be redistributed electronically.


Read MPEC 2001-X70 Read MPEC 2001-X72


M.P.E.C. 2001-X71                                Issued 2001 Dec. 15, 16:27 UT

     The Minor Planet Electronic Circulars contain information on unusual
         minor planets and routine data on comets.  They are published
   on behalf of Commission 20 of the International Astronomical Union by the
          Minor Planet Center, Smithsonian Astrophysical Observatory,
                          Cambridge, MA 02138, U.S.A.

             Prepared using the Tamkin Foundation Computer Network

                              MPC@CFA.HARVARD.EDU
          URL http://cfa-www.harvard.edu/iau/mpc.html  ISSN 1523-6714

                            COMET C/2001 Q4 (NEAT)

Observations:
    CK01Q040 bC2001 12 08.43501 02 05 42.95 -30 36 59.2          17.3 N      422
    CK01Q040 bC2001 12 08.43571 02 05 42.85 -30 36 59.6          17.6 N      422
    CK01Q040  C2001 12 13.54635 02 03 57.27 -30 32 01.1          17.8 T      428

Observer details:
422 Loomberah.  Observer G. J. Garradd.  0.45-m f/5.4 reflector + CCD.
428 Reedy Creek.  Observer J. Broughton.  0.25-m f/6.3 Schmidt-Cassegrain
    + CCD.

Orbital elements:
    C/2001 Q4 (NEAT)
Epoch 2004 June 4.0 TT = JDT 2453160.5
T 2004 May 15.83135 TT                                  MPC
q   0.9615791            (2000.0)            P               Q
z  -0.0008144      Peri.    1.20920     -0.86522364     -0.06613552
 +/-0.0001180      Node   210.27276     -0.46789243     -0.24971949
e   1.0007831      Incl.   99.63558     -0.18017970     +0.96605707
Residuals in seconds of arc
010824 644  0.1-  0.3+    010910 644  0.7+  0.8-    011012 360  0.2+  0.1+
010824 644  0.6-  0.3+    010910 422  0.2+  0.2+    011012 360  0.1+  0.5-
010824 644  0.9-  0.3+    010910 422  0.3+  0.0     011014 402  1.0-  1.2+
010824 422  1.8+  0.4+    010910 422  0.7+  0.6+    011014 402  0.6+  0.4+
010824 422  0.5+  0.2+    010913 422  0.2+  0.2+    011014 402  0.2+  1.2+
010824 422  0.6+  0.1-    010913 422  0.3-  0.5-    011014 867  0.2-  0.0
010824 422  0.1+  0.1+    010913 422  1.2+  0.0     011014 867  0.3-  0.3+
010826 644  0.1-  0.1+    010915 422  0.0   0.1+    011023 402  1.4+  0.3+
010826 644  0.2+  0.2-    010915 422  0.4+  0.3+    011023 402 (2.3+  0.3-)
010826 644  0.0   0.4+    010915 422  0.8+  0.2+    011023 402  0.5+  0.5+
010826 644  0.2-  0.1-    010915 422  0.4+  0.5+    011024 360  0.8+  0.1-
010826 644  0.0   0.3-    010916 372  1.0+  0.1-    011024 360  0.8-  0.3+
010826 644  0.3-  0.4+    010917 402  0.5-  1.1-    011110 342  0.6+  0.3+
010827 046  0.9-  0.1+    010917 402  0.1+  0.1-    011110 342  0.9+  0.7-
010827 046  0.5-  0.4-    010917 402  0.2+  0.2+    011113 428  1.3-  0.6-
010827 046  0.4-  0.5-    010918 422  0.0   0.1-    011113 428  0.5-  0.3-
010827 644  0.4+  0.8+    010918 422  0.2+  0.5+    011113 428  0.4-  0.0
010827 644  0.1-  1.1+    010918 360  0.3-  0.6-    011114 402 (1.0-  2.0+)
010827 644  0.6+  0.6+    010918 360  0.1+  0.3-    011114 402 (1.5+  2.7+)
010827 711  0.1-  0.3+    010918 360  0.1-  0.1-    011114 402  1.3-  1.6+
010827 711  0.2+  0.3+    010919 046  0.3+  0.1+    011115 474  0.5+  1.2+
010827 711  0.4-  0.0     010919 046  0.2-  0.2-    011115 474  0.4-  0.8+
010831 402  0.4-  0.3-    010919 046  1.1-  0.3+    011115 474  0.0   0.7+
010831 402  0.3+  0.4+    010919 046  0.4+  0.2+    011116 349  1.0+  1.7+
010831 402  0.3-  0.6-    010919 046  0.6+  0.4+    011116 349 (1.0+  2.5+)
010906 644  1.3-  0.4-    010921 620  1.0-  0.3-    011118 340 (0.2-  5.4+)
010906 644  1.9-  0.9+    010921 620  1.2-  1.5-    011118 340  0.1-  1.3-
010906 644 (3.3-  0.2-)   010921 620  0.5-  0.4-    011118 340  1.4-  6.4-
010907 644 (2.7-  0.9+)   010921 620  0.5+  0.1-    011118 340 (1.2- 12.2-)
010907 644 (2.5-  0.5+)   010922 867  0.1-  0.8-    011120 360  0.3-  0.2-
010907 644 (2.1-  1.8+)   010922 867  0.2+  0.5-    011120 360  0.5+  0.4-
010909 644 (0.4-  3.1+)   010922 867  0.8+  0.2-    011120 402  0.6-  0.9+
010909 644 (0.7-  3.0+)   010923 402  0.1+  0.9+    011120 402  0.2-  1.4+
010909 422  0.7-  1.1-    010923 402  0.3+  0.5+    011120 402  0.5+  0.7+
010910 644  0.2+  1.1-    010923 402  1.3-  0.6+    011122 867  0.1+  0.1-
010910 644  0.4-  1.1-    010924 428  0.0   0.1-    011122 867  0.3+  0.1-
010910 644  0.2+  1.2-    010925 428  0.9+  0.3+    011208 422  1.1+  0.6+
010910 644  0.6+  0.9-    010925 428  0.1+  0.2+    011208 422  0.0   0.2+
010910 644  0.3+  0.1-    010925 428  0.5-  0.4+    011213 428  0.3-  0.7-

